CAPE
nan nan nan nan nan nan nan nan nan nan nan nan nan nan nan nan nan nan nan nan nan nan nan nan nan nan nan 0 1 1 4 6 6 6 7 8 9 9 10 12 12 14 16 18 18 20 22 24 24 27 28 34 40 40 41 42 42 42 42 40 40 43 54 72 72 97 105 107 112 112 121 128 134 134 141 148 140 140 140 134 134 142 149 163 163 186
nan nan nan nan nan nan nan nan nan nan nan nan nan nan nan nan nan nan nan nan nan nan nan nan nan nan nan nan nan nan 0 2 3 3 5 6 7 7 10 12 12 14 16 18 18 20 21 22 22 22 25 28 30 30 33 32 32 33 33 34 34 38 49 68 68 84 99 104 109 109 116 124 132 132 131 132 126 126 125 123 123 140 159 180 180 212
nan nan nan nan nan nan nan nan nan nan nan nan nan nan nan nan nan nan nan nan nan nan nan nan nan nan nan nan nan nan nan 0 1 1 3 4 6 6 8 11 11 13 15 17 17 19 21 20 20 20 22 23 23 23 25 25 25 25 28 31 31 37 48 61 61 72 89 94 98 98 109 120 128 128 124 121 113 113 110 127 127 151 178 201 201 228
nan nan nan nan nan nan nan nan nan nan nan nan nan nan nan nan nan nan nan nan nan nan nan nan nan nan nan nan nan nan nan nan 0 0 1 3 5 5 7 10 10 12 14 17 17 17 18 17 17 18 18 20 19 19 19 19 19 21 25 28 28 38 47 53 53 59 66 74 83 83 93 104 102 102 101 99 101 101 115 133 133 165 196 227 227 250
nan nan nan nan nan nan nan nan nan nan nan nan nan nan nan nan nan nan nan nan nan nan nan nan nan nan nan nan nan nan nan nan nan nan 0 2 4 4 6 9 9 10 12 14 14 15 14 15 15 15 15 18 17 17 17 18 18 20 23 29 29 37 48 52 52 56 58 67 68 68 72 78 83 83 83 92 99 99 111 133 133 165 208 232 232 257
nan nan nan nan nan nan nan nan nan nan nan nan nan nan nan nan nan nan nan nan nan nan nan nan nan nan nan nan nan nan nan nan nan nan nan 0 2 2 4 6 6 8 10 10 10 11 11 11 11 13 13 14 13 13 14 16 16 18 22 28 28 37 44 48 48 54 56 61 63 63 67 73 73 73 78 83 89 89 100 121 121 160 190 225 225 250
nan nan nan nan nan nan nan nan nan nan nan nan nan nan nan nan nan nan nan nan nan nan nan nan nan nan nan nan nan nan nan nan nan nan nan nan 0 0 1 3 3 5 6 7 7 7 7 7 7 9 9 9 9 9 11 13 13 16 23 28 28 36 42 49 49 50 56 61 61 61 63 66 71 71 69 73 78 78 89 109 109 142 173 211 211 233
nan nan nan nan nan nan nan nan nan nan nan nan nan nan nan nan nan nan nan nan nan nan nan nan nan nan nan nan nan nan nan nan nan nan nan nan nan nan nan nan nan 0 0 0 0 0 1 1 1 2 3 2 3 3 5 10 10 16 23 28 28 32 39 45 45 50 51 50 52 52 52 51 53 53 55 61 72 72 79 92 92 109 133 160 160 185
nan nan nan nan nan nan nan nan nan nan nan nan nan nan nan nan nan nan nan nan nan nan nan nan nan nan nan nan nan nan nan nan nan nan nan nan nan nan nan nan nan nan nan nan nan nan nan 0 0 1 1 1 1 1 4 8 8 16 22 26 26 30 36 42 42 44 46 47 47 47 48 48 50 50 53 63 68 68 73 81 81 88 107 128 128 156
nan nan nan nan nan nan nan nan nan nan 1 nan nan nan nan nan nan nan nan nan nan nan nan nan nan nan nan nan nan nan nan nan nan nan nan nan nan nan nan nan nan nan nan nan nan nan nan nan nan nan nan nan 0 0 2 7 7 14 21 24 24 29 33 37 37 39 41 44 43 43 43 45 48 48 52 59 64 64 68 72 72 76 89 105 105 128
nan nan nan nan nan nan nan nan nan nan 1 0 0 0 nan nan nan nan nan nan nan nan nan nan nan nan nan nan nan nan nan nan nan nan nan nan nan nan nan nan nan nan nan nan nan nan nan nan nan nan nan nan nan nan 1 5 5 13 20 24 24 28 31 35 35 36 37 39 40 40 40 43 48 48 51 55 62 62 62 63 63 71 79 91 91 106
nan nan nan nan nan nan nan nan 0 0 1 0 0 0 nan 0 0 0 nan nan nan nan nan nan nan nan nan nan nan nan nan nan nan nan nan nan nan nan nan nan nan nan nan nan nan nan nan nan nan nan nan nan nan nan 0 4 4 12 18 24 24 27 31 35 35 35 37 37 38 38 40 43 45 45 50 52 59 59 61 63 63 67 76 86 86 98
nan nan nan nan nan nan nan nan nan nan 0 2 2 2 1 0 0 0 nan nan nan nan nan nan nan nan nan nan nan nan nan nan nan nan nan nan nan nan nan nan nan nan nan nan nan nan nan nan nan nan nan nan nan nan 0 4 4 11 17 22 22 25 30 33 33 34 35 35 38 38 41 41 42 42 46 47 51 51 57 59 59 63 74 86 86 94
nan nan nan nan nan nan nan nan nan nan 1 3 3 3 3 1 0 0 nan nan nan nan nan nan nan nan nan nan nan nan nan nan nan nan nan nan nan nan nan nan nan nan nan nan nan nan nan nan nan nan nan nan nan nan nan 5 5 12 16 20 20 24 29 31 31 31 31 32 36 36 37 39 42 42 42 43 48 48 50 57 57 59 68 80 80 90
nan nan nan nan nan nan nan nan 1 1 3 4 5 5 6 3 nan nan nan nan nan nan nan nan nan nan nan nan nan nan nan nan nan nan nan nan nan nan nan nan nan nan nan nan nan nan nan nan nan nan nan nan nan nan nan 3 3 13 14 19 19 24 26 27 27 27 29 32 34 34 36 40 38 38 40 41 45 45 50 54 54 59 64 69 69 86
nan nan nan nan nan nan nan nan 2 2 4 4 4 4 5 2 nan nan nan nan nan nan nan nan nan nan nan nan nan nan nan nan nan nan nan nan nan nan nan nan nan nan nan nan nan nan nan nan nan nan nan nan nan nan 0 4 4 11 14 18 18 21 25 25 25 26 26 29 32 32 35 38 38 38 37 38 40 40 46 49 49 54 60 69 69 80
nan nan nan nan nan nan nan 1 7 7 6 4 4 4 4 2 0 0 nan nan nan nan nan nan nan nan nan nan nan nan nan nan nan nan nan nan nan nan nan nan nan nan nan nan nan nan nan nan nan nan nan nan nan nan 0 3 3 8 13 16 16 19 23 22 22 23 23 26 28 28 31 34 38 38 37 37 40 40 40 45 45 51 54 67 67 79
nan nan nan nan nan nan 0 4 15 15 9 5 4 4 3 1 0 0 nan nan nan nan nan nan nan nan nan nan nan nan nan nan nan nan nan nan nan nan nan nan nan nan nan nan nan nan nan nan nan nan nan nan nan nan 0 2 2 6 12 15 15 17 19 20 20 22 23 24 26 26 28 31 33 33 36 37 37 37 37 39 39 45 52 56 56 71
nan nan nan 0 0 1 2 13 21 21 10 7 5 5 0 nan nan nan nan nan nan nan nan nan nan nan nan nan nan nan nan nan nan nan nan nan nan nan nan nan nan nan nan nan nan nan nan nan nan nan nan nan nan nan 0 2 2 5 10 15 15 15 16 19 19 21 22 23 25 25 26 28 30 30 34 37 36 36 38 40 40 44 48 55 55 66
nan nan nan 1 1 5 9 20 24 24 13 14 7 7 nan nan nan nan nan nan nan nan nan nan nan nan nan nan nan nan nan nan nan nan nan nan nan nan nan nan nan nan nan nan nan nan nan nan nan nan nan nan nan nan nan 1 1 3 8 13 13 14 16 17 17 18 20 23 23 23 25 26 28 28 31 35 35 35 34 37 37 40 43 53 53 63
nan nan 0 5 5 8 14 27 27 27 21 22 8 8 0 nan nan nan nan nan nan nan nan nan nan nan nan nan nan nan nan nan nan nan nan nan nan nan nan nan nan nan nan nan nan nan nan nan nan nan nan nan nan nan nan 0 0 1 6 9 9 12 13 14 14 14 17 19 22 22 24 24 26 26 28 33 35 35 35 37 37 39 42 51 51 68
nan 0 3 10 10 10 22 26 22 22 30 28 9 9 1 nan nan nan nan nan nan nan nan nan nan nan nan nan nan nan nan nan nan nan nan nan nan nan nan nan nan nan nan nan nan nan nan nan nan nan nan nan nan nan nan nan nan 0 4 7 7 9 10 10 10 12 13 16 20 20 22 23 26 26 28 31 37 37 37 36 36 39 42 50 50 65
2 3 7 18 18 24 36 25 28 28 29 26 10 10 5 2 0 0 0 nan nan nan nan nan nan nan nan nan nan nan nan nan nan nan nan nan nan nan nan nan nan nan nan nan nan nan nan nan nan nan nan nan nan nan nan nan nan nan 2 4 4 6 7 8 8 9 11 14 16 16 18 22 24 24 26 29 35 35 37 38 38 40 44 47 47 56
11 16 26 39 39 37 44 25 27 27 27 14 5 5 10 3 1 1 1 0 0 0 nan nan nan nan nan nan nan nan nan nan nan nan nan nan nan nan nan nan nan nan nan nan nan nan nan nan nan nan nan nan nan nan nan nan nan nan 0 2 2 3 4 5 5 6 9 12 14 14 17 20 23 23 26 29 33 33 36 37 37 41 45 47 47 46
26 38 41 48 48 39 51 42 28 28 18 5 0 0 0 0 0 0 nan nan nan nan nan nan nan nan nan nan nan nan nan nan nan nan nan nan nan nan nan nan nan nan nan nan nan nan nan nan nan nan nan nan nan nan nan nan nan nan nan 0 0 1 2 3 3 4 6 9 13 13 16 17 23 23 25 28 30 30 34 35 35 41 48 45 45 40
31 35 30 31 31 34 39 42 38 38 13 1 nan nan nan nan nan nan nan nan nan nan nan nan nan nan nan nan nan nan nan nan nan nan nan nan nan nan nan nan nan nan nan nan nan nan nan nan nan nan nan nan nan nan nan nan nan nan nan nan nan 0 0 1 1 3 5 7 10 10 14 16 21 21 24 25 28 28 31 37 37 42 48 42 42 33
27 27 25 23 23 23 20 18 16 16 13 4 nan nan nan nan nan nan nan nan nan nan nan nan nan nan nan nan nan nan nan nan nan nan nan nan nan nan nan nan nan nan nan nan nan nan nan nan nan nan nan nan nan nan nan nan nan nan nan nan nan nan nan 0 0 1 3 6 9 9 12 16 19 19 22 23 24 24 30 37 37 39 43 40 40 32
18 19 18 17 17 12 6 6 9 9 9 6 2 2 nan nan nan nan nan nan nan nan nan nan nan nan nan nan nan nan nan nan nan nan nan nan nan nan nan nan nan nan nan nan nan nan nan nan nan nan nan nan nan nan nan nan nan nan nan nan nan nan nan 0 0 0 2 5 7 7 10 14 17 17 20 21 25 25 30 36 36 40 41 31 31 13
11 13 12 10 10 5 3 3 5 5 6 5 2 2 nan nan nan nan nan nan nan nan nan nan nan nan nan nan nan nan nan nan nan nan nan nan nan nan nan nan nan nan nan nan nan nan nan nan nan nan nan nan nan nan nan nan nan nan nan nan nan nan nan nan nan 0 1 3 5 5 8 12 16 16 20 23 26 26 31 36 36 39 35 25 25 10
4 5 6 5 5 3 1 1 1 1 3 4 1 1 nan nan nan nan nan nan nan nan nan nan nan nan nan nan nan nan nan nan nan nan nan nan nan nan nan nan nan nan nan nan nan nan nan nan nan nan nan nan nan nan nan nan nan nan nan nan nan nan nan nan nan 0 1 2 4 4 6 10 14 14 18 22 28 28 31 37 37 37 22 19 19 13
3 3 4 4 4 3 2 3 1 1 2 4 2 2 nan nan nan nan nan nan nan nan nan nan nan nan nan nan nan nan nan nan nan nan nan nan nan nan nan nan nan nan nan nan nan nan nan nan nan nan nan nan nan nan nan nan nan nan nan nan nan nan nan nan nan 0 0 1 3 3 6 10 14 14 17 22 26 26 33 38 38 36 22 19 19 13
3 1 1 1 1 1 2 2 1 1 0 0 1 1 1 1 0 0 nan nan nan nan nan nan nan nan nan nan nan nan nan nan nan nan 1 0 0 0 nan nan nan nan nan 0 0 0 nan nan nan nan nan nan nan nan nan nan nan nan nan nan nan nan nan nan nan nan nan 1 4 4 7 9 11 11 13 17 22 22 29 36 36 38 26 21 21 21
3 2 1 1 1 1 2 4 0 0 0 0 0 0 0 0 1 1 0 nan nan nan nan nan nan nan nan nan nan nan nan nan 2 2 6 1 1 1 0 nan nan 0 nan nan nan nan nan nan nan nan nan nan nan nan nan nan nan nan nan nan nan nan nan nan nan nan nan 0 2 2 8 8 11 11 12 14 19 19 28 34 34 40 40 23 23 23
3 3 1 0 0 1 1 0 nan nan nan 0 0 0 0 0 0 0 1 0 0 0 nan nan nan nan nan nan nan nan nan nan 2 2 7 3 2 2 1 0 0 0 0 nan nan nan nan nan nan nan nan nan nan nan nan nan nan nan nan nan nan nan nan nan nan nan nan nan 0 0 2 3 8 8 7 12 17 17 25 31 31 36 38 34 34 29
0 0 0 0 0 0 nan nan nan nan nan nan 0 0 0 0 0 0 1 1 1 1 0 0 0 nan 0 nan nan nan nan nan 3 3 11 6 3 3 1 0 0 0 0 0 0 nan nan nan nan nan nan nan nan nan nan nan nan nan nan nan nan nan nan nan nan nan nan nan nan nan 0 0 0 0 2 8 16 16 24 28 28 32 36 44 44 37
0 0 0 nan nan nan nan nan nan nan nan nan nan nan 0 0 0 0 0 2 2 3 3 1 1 1 0 1 0 0 0 nan 5 5 14 9 4 4 1 0 0 1 1 0 0 0 nan nan nan nan nan nan nan nan nan nan nan nan nan nan nan nan nan nan nan nan nan nan nan nan 0 0 1 1 2 13 21 21 22 23 23 26 30 36 36 39
nan nan nan nan nan nan nan nan nan nan nan nan nan nan 0 0 1 1 1 4 4 5 3 4 4 2 4 2 3 3 3 2 6 6 13 12 3 3 1 0 0 2 1 0 0 0 0 0 0 nan nan nan nan nan nan nan nan nan nan nan nan nan nan nan nan nan nan 0 1 1 1 1 2 2 5 17 16 16 16 20 20 19 24 30 30 34
nan nan nan nan nan nan nan nan nan nan nan nan nan nan 0 1 3 3 1 4 4 5 2 0 0 1 4 7 8 8 10 9 8 8 12 9 2 2 0 1 1 1 1 1 1 1 1 0 0 nan nan nan nan nan nan nan nan nan nan nan nan nan nan nan nan nan nan 1 3 3 4 3 2 2 4 6 3 3 3 2 2 10 18 22 22 29
nan nan nan nan nan nan nan nan nan nan nan nan 0 0 1 1 3 3 2 1 1 1 1 nan nan nan 1 1 5 5 7 7 6 6 7 7 3 3 0 0 0 1 1 3 3 2 2 1 1 0 nan nan nan nan nan nan nan nan nan nan nan nan nan nan nan 0 0 1 4 4 2 2 2 2 2 2 3 3 3 3 3 6 8 7 7 18
nan nan nan nan nan nan nan nan nan nan nan 0 1 1 0 nan 1 1 2 nan nan nan nan nan nan nan nan nan 1 1 3 6 5 5 6 8 8 8 2 1 1 1 2 3 3 3 2 2 2 1 1 0 nan nan nan nan nan nan 0 nan nan nan nan 0 0 0 0 0 1 1 1 1 2 2 2 3 4 4 4 3 3 5 9 7 7 8
nan nan nan nan nan nan nan nan 0 0 0 nan nan nan nan nan nan nan nan nan nan nan nan nan nan nan nan nan nan nan nan 2 2 2 5 9 10 10 5 3 3 3 2 3 3 2 3 2 2 1 0 0 0 0 0 nan nan 0 2 0 0 nan 0 1 1 1 1 1 1 1 4 4 5 5 3 5 3 3 5 5 5 6 9 10 10 10
nan nan nan nan nan nan nan nan 0 0 0 nan nan nan nan 0 0 0 nan nan nan nan nan nan nan nan nan nan nan nan nan 0 2 2 5 8 9 9 10 5 5 4 3 2 2 2 2 2 2 2 1 0 0 0 nan nan nan nan 0 nan nan 0 1 0 0 0 0 1 1 1 6 4 3 3 5 5 4 4 6 5 5 12 12 9 9 9
nan nan nan nan nan nan nan 0 nan nan nan nan nan nan nan 0 0 0 nan nan nan nan nan nan nan nan nan nan nan nan nan 0 0 0 1 4 6 6 6 4 4 3 2 1 1 1 0 1 1 0 0 0 0 0 nan nan nan nan nan 1 1 2 0 nan nan nan 1 2 2 2 3 3 3 3 4 4 3 3 5 8 8 16 13 7 7 8
nan nan nan nan nan nan nan nan nan nan nan nan nan nan nan 0 1 1 nan nan nan nan nan nan nan nan nan nan nan nan nan nan nan nan nan 0 2 2 2 1 1 0 1 0 0 nan nan nan nan nan nan nan nan nan nan nan nan nan nan 1 1 2 1 0 0 0 1 2 2 2 3 3 3 3 3 3 3 3 3 3 3 1 6 6 6 7
nan nan nan nan nan nan nan nan nan nan nan nan nan nan nan 0 0 0 nan nan nan nan nan nan nan nan nan nan nan nan nan nan nan nan nan nan 0 0 1 0 0 nan nan nan nan nan nan nan nan nan nan nan nan nan nan nan nan nan 1 2 2 2 1 2 2 1 1 2 2 2 3 3 3 3 2 2 2 2 2 1 1 1 2 4 4 6
nan nan nan nan nan nan nan nan nan nan nan nan nan nan nan nan nan nan nan nan nan nan nan nan nan nan nan nan nan nan nan nan nan nan nan nan nan nan nan nan nan nan nan nan nan nan nan nan nan nan nan nan nan nan nan nan nan 0 1 2 2 1 1 1 1 1 1 2 3 3 4 4 2 2 2 2 3 3 2 2 2 1 2 3 3 8
nan nan nan nan nan nan nan nan nan nan nan nan nan nan nan nan nan nan nan nan nan nan nan nan nan nan nan nan nan nan nan nan nan nan nan nan nan nan nan nan nan nan nan nan nan nan nan nan nan nan nan nan nan nan nan nan nan 1 1 1 1 0 0 0 0 1 1 1 2 2 5 5 2 2 2 2 2 2 2 2 2 2 2 4 4 7
nan nan nan nan nan nan nan nan nan nan nan nan nan nan nan nan nan nan nan nan nan nan nan nan nan nan nan nan nan nan nan nan nan nan nan nan nan nan nan nan nan nan nan nan nan nan nan nan nan nan nan nan nan nan nan 0 0 1 0 0 0 0 1 1 1 1 1 2 3 3 3 3 2 2 3 3 2 2 2 2 2 1 2 5 5 7
nan nan 0 nan nan nan nan nan nan nan nan nan nan nan nan nan 0 0 nan nan nan nan nan nan nan nan nan nan nan nan nan nan nan nan nan nan nan nan nan nan nan nan nan nan nan nan nan nan nan nan nan nan nan nan 0 1 1 0 nan 0 0 1 1 1 1 1 1 3 5 5 4 3 2 2 4 3 3 3 2 1 1 1 1 3 3 5
nan nan 0 0 0 nan nan nan nan nan nan nan nan nan nan nan nan nan nan nan nan nan nan nan nan nan nan nan nan nan nan nan nan nan nan nan nan nan nan nan nan nan nan nan nan nan nan nan nan nan nan nan 1 1 2 nan nan nan nan 0 0 1 1 1 1 2 2 3 4 4 5 4 4 4 3 3 3 3 2 1 1 1 0 2 2 4
nan nan 0 0 0 0 nan nan nan nan nan nan nan nan nan nan nan nan nan nan nan nan nan nan nan nan nan nan nan nan nan nan nan nan nan nan nan nan nan nan nan nan nan nan nan nan nan nan nan nan nan nan nan nan nan nan nan nan nan 0 0 0 1 1 1 4 8 4 3 3 4 4 4 4 4 3 2 2 1 1 1 0 0 1 1 3
CIN
nan nan nan nan nan nan nan nan nan nan nan nan nan nan nan nan nan nan nan nan nan nan nan nan nan nan nan -0 -0 -0 -0 -0 -0 -0 -0 -0 -0 -0 -0 -0 -0 -0 -0 -0 -0 -0 -0 -0 -0 -0 -0 -0 -0 -0 -0 -0 -0 -0 -0 -0 -0 -0 -0 -0 -0 -0 -0 -0 -0 -0 -0 -0 -0 -0 -0 -0 -0 -0 -0 -0 -0 -0 -0 -0 -0 -0
nan nan nan nan nan nan nan nan nan nan nan nan nan nan nan nan nan nan nan nan nan nan nan nan nan nan nan nan nan nan -0 -0 -0 -0 -0 -0 -0 -0 -0 -0 -0 -0 -0 -0 -0 -0 -0 -0 -0 -0 -0 -0 -0 -0 -0 -0 -0 -0 -0 -0 -0 -0 -0 -0 -0 -0 -0 -0 -0 -0 -0 -0 -0 -0 -0 -0 -0 -0 -0 -0 -0 -0 -0 -0 -0 -0
nan nan nan nan nan nan nan nan nan nan nan nan nan nan nan nan nan nan nan nan nan nan nan nan nan nan nan nan nan nan nan -0 -0 -0 -0 -0 -0 -0 -0 -0 -0 -0 -0 -0 -0 -0 -0 -0 -0 -0 -0 -0 -0 -0 -0 -0 -0 -0 -0 -0 -0 -0 -0 -0 -0 -0 -0 -0 -0 -0 -0 -0 -0 -0 -0 -0 -0 -0 -0 -0 -0 -0 -0 -0 -0 -0
nan nan nan nan nan nan nan nan nan nan nan nan nan nan nan nan nan nan nan nan nan nan nan nan nan nan nan nan nan nan nan nan -0 -0 -0 -0 -0 -0 -0 -0 -0 -0 -0 -0 -0 -0 -0 -0 -0 -0 -0 -0 -0 -0 -0 -0 -0 -0 -0 -0 -0 -0 -0 -0 -0 -0 -0 -0 -0 -0 -0 -0 -0 -0 -0 -0 -0 -0 -0 -0 -0 -0 -0 -0 -0 -0
nan nan nan nan nan nan nan nan nan nan nan nan nan nan nan nan nan nan nan nan nan nan nan nan nan nan nan nan nan nan nan nan nan nan -0 -0 -0 -0 -0 -0 -0 -0 -0 -0 -0 -0 -0 -0 -0 -0 -0 -0 -0 -0 -0 -0 -0 -0 -0 -0 -0 -0 -0 -0 -0 -0 -0 -0 -0 -0 -0 -0 -0 -0 -0 -0 -0 -0 -0 -0 -0 -0 -0 -0 -0 -0
nan nan nan nan nan nan nan nan nan nan nan nan nan nan nan nan nan nan nan nan nan nan nan nan nan nan nan nan nan nan nan nan nan nan nan -0 -0 -0 -0 -0 -0 -0 -0 -0 -0 -0 -0 -0 -0 -0 -0 -0 -0 -0 -0 -0 -0 -0 -0 -0 -0 -0 -0 -0 -0 -0 -0 -0 -0 -0 -0 -0 -0 -0 -0 -0 -0 -0 -0 -0 -0 -0 -0 -0 -0 -0
nan nan nan nan nan nan nan nan nan nan nan nan nan nan nan nan nan nan nan nan nan nan nan nan nan nan nan nan nan nan nan nan nan nan nan nan -0 -0 -0 -0 -0 -0 -0 -0 -0 -0 -0 -0 -0 -0 -0 -0 -0 -0 -0 -0 -0 -0 -0 -0 -0 -0 -0 -0 -0 -0 -0 -0 -0 -0 -0 -0 -0 -0 -0 -0 -0 -0 -0 -0 -0 -0 -0 -0 -0 -0
nan nan nan nan nan nan nan nan nan nan nan nan nan nan nan nan nan nan nan nan nan nan nan nan nan nan nan nan nan nan nan nan nan nan nan nan nan nan nan nan nan -0 -0 -0 -0 -0 -0 -0 -0 -0 -0 -0 -0 -0 -0 -0 -0 -0 -0 -0 -0 -0 -0 -0 -0 -0 -0 -0 -0 -0 -0 -0 -0 -0 -0 -0 -0 -0 -0 -0 -0 -0 -0 -0 -0 -0
nan nan nan nan nan nan nan nan nan nan nan nan nan nan nan nan nan nan nan nan nan nan nan nan nan nan nan nan nan nan nan nan nan nan nan nan nan nan nan nan nan nan nan nan nan nan nan -0 -0 -0 -0 -0 -0 -0 -0 -0 -0 -0 -0 -0 -0 -0 -0 -0 -0 -0 -0 -0 -0 -0 -0 -0 -0 -0 -0 -0 -0 -0 -0 -0 -0 -0 -0 -0 -0 -0
nan nan nan nan nan nan nan nan nan nan -0 nan nan nan nan nan nan nan nan nan nan nan nan nan nan nan nan nan nan nan nan nan nan nan nan nan nan nan nan nan nan nan nan nan nan nan nan nan nan nan nan nan -0 -0 -0 -0 -0 -0 -0 -0 -0 -0 -0 -0 -0 -0 -0 -0 -0 -0 -0 -0 -0 -0 -0 -0 -0 -0 -0 -0 -0 -0 -0 -0 -0 -0
nan nan nan nan nan nan nan nan nan nan -0 -0 -0 -0 nan nan nan nan nan nan nan nan nan nan nan nan nan nan nan nan nan nan nan nan nan nan nan nan nan nan nan nan nan nan nan nan nan nan nan nan nan nan nan nan -0 -0 -0 -0 -0 -0 -0 -0 -0 -0 -0 -0 -0 -0 -0 -0 -0 -0 -0 -0 -0 -0 -0 -0 -0 -0 -0 -0 -0 -0 -0 -0
nan nan nan nan nan nan nan nan -0 -0 -0 -0 -0 -0 nan -0 -0 -0 nan nan nan nan nan nan nan nan nan nan nan nan nan nan nan nan nan nan nan nan nan nan nan nan nan nan nan nan nan nan nan nan nan nan nan nan -0 -0 -0 -0 -0 -0 -0 -0 -0 -0 -0 -0 -0 -0 -0 -0 -0 -0 -0 -0 -0 -0 -0 -0 -0 -0 -0 -0 -0 -0 -0 -0
nan nan nan nan nan nan nan nan nan nan -0 -0 -0 -0 -0 -0 -0 -0 nan nan nan nan nan nan nan nan nan nan nan nan nan nan nan nan nan nan nan nan nan nan nan nan nan nan nan nan nan nan nan nan nan nan nan nan -0 -0 -0 -0 -0 -0 -0 -0 -0 -0 -0 -0 -0 -0 -0 -0 -0 -0 -0 -0 -0 -0 -0 -0 -0 -0 -0 -0 -0 -0 -0 -0
nan nan nan nan nan nan nan nan nan nan -0 -0 -0 -0 -0 -0 -0 -0 nan nan nan nan nan nan nan nan nan nan nan nan nan nan nan nan nan nan nan nan nan nan nan nan nan nan nan nan nan nan nan nan nan nan nan nan nan -0 -0 -0 -0 -0 -0 -0 -0 -0 -0 -0 -0 -0 -0 -0 -0 -0 -0 -0 -0 -0 -0 -0 -0 -0 -0 -0 -0 -0 -0 -0
nan nan nan nan nan nan nan nan -0 -0 -0 -0 -0 -0 -0 -0 nan nan nan nan nan nan nan nan nan nan nan nan nan nan nan nan nan nan nan nan nan nan nan nan nan nan nan nan nan nan nan nan nan nan nan nan nan nan nan -0 -0 -0 -0 -0 -0 -0 -0 -0 -0 -0 -0 -0 -0 -0 -0 -0 -0 -0 -0 -0 -0 -0 -0 -0 -0 -0 -0 -0 -0 -0
nan nan nan nan nan nan nan nan -0 -0 -0 -0 -0 -0 -0 -0 nan nan nan nan nan nan nan nan nan nan nan nan nan nan nan nan nan nan nan nan nan nan nan nan nan nan nan nan nan nan nan nan nan nan nan nan nan nan -0 -0 -0 -0 -0 -0 -0 -0 -0 -0 -0 -0 -0 -0 -0 -0 -0 -0 -0 -0 -0 -0 -0 -0 -0 -0 -0 -0 -0 -0 -0 -0
nan nan nan nan nan nan nan -0 -0 -0 -0 -0 -0 -0 -0 -0 -0 -0 nan nan nan nan nan nan nan nan nan nan nan nan nan nan nan nan nan nan nan nan nan nan nan nan nan nan nan nan nan nan nan nan nan nan nan nan -0 -0 -0 -0 -0 -0 -0 -0 -0 -0 -0 -0 -0 -0 -0 -0 -0 -0 -0 -0 -0 -0 -0 -0 -0 -0 -0 -0 -0 -0 -0 -0
nan nan nan nan nan nan -0 -0 -0 -0 -0 -0 -0 -0 -0 -0 -0 -0 nan nan nan nan nan nan nan nan nan nan nan nan nan nan nan nan nan nan nan nan nan nan nan nan nan nan nan nan nan nan nan nan nan nan nan nan -0 -0 -0 -0 -0 -0 -0 -0 -0 -0 -0 -0 -0 -0 -0 -0 -0 -0 -0 -0 -0 -0 -0 -0 -0 -0 -0 -0 -0 -0 -0 -0
nan nan nan -0 -0 -0 -0 -0 -0 -0 -0 -0 -0 -0 -0 nan nan nan nan nan nan nan nan nan nan nan nan nan nan nan nan nan nan nan nan nan nan nan nan nan nan nan nan nan nan nan nan nan nan nan nan nan nan nan -0 -0 -0 -0 -0 -0 -0 -0 -0 -0 -0 -0 -0 -0 -0 -0 -0 -0 -0 -0 -0 -0 -0 -0 -0 -0 -0 -0 -0 -0 -0 -0
nan nan nan -0 -0 -0 -0 -0 -0 -0 -0 -0 -0 -0 nan nan nan nan nan nan nan nan nan nan nan nan nan nan nan nan nan nan nan nan nan nan nan nan nan nan nan nan nan nan nan nan nan nan nan nan nan nan nan nan nan -0 -0 -0 -0 -0 -0 -0 -0 -0 -0 -0 -0 -0 -0 -0 -0 -0 -0 -0 -0 -0 -0 -0 -0 -0 -0 -0 -0 -0 -0 -0
nan nan -0 -0 -0 -0 -0 -0 -0 -0 -0 -0 -0 -0 -0 nan nan nan nan nan nan nan nan nan nan nan nan nan nan nan nan nan nan nan nan nan nan nan nan nan nan nan nan nan nan nan nan nan nan nan nan nan nan nan nan -0 -0 -0 -0 -0 -0 -0 -0 -0 -0 -0 -0 -0 -0 -0 -0 -0 -0 -0 -0 -0 -0 -0 -0 -0 -0 -0 -0 -0 -0 -0
nan -0 -0 -0 -0 -0 -0 -0 -0 -0 -0 -0 -0 -0 -0 nan nan nan nan nan nan nan nan nan nan nan nan nan nan nan nan nan nan nan nan nan nan nan nan nan nan nan nan nan nan nan nan nan nan nan nan nan nan nan nan nan nan -0 -0 -0 -0 -0 -0 -0 -0 -0 -0 -0 -0 -0 -0 -0 -0 -0 -0 -0 -0 -0 -0 -0 -0 -0 -0 -0 -0 -0
-0 -0 -0 -0 -0 -0 -0 -0 -0 -0 -0 -0 -0 -0 -0 -0 -0 -0 -0 nan nan nan nan nan nan nan nan nan nan nan nan nan nan nan nan nan nan nan nan nan nan nan nan nan nan nan nan nan nan nan nan nan nan nan nan nan nan nan -0 -0 -0 -0 -0 -0 -0 -0 -0 -0 -0 -0 -0 -0 -0 -0 -0 -0 -0 -0 -0 -0 -0 -0 -0 -0 -0 -0
-0 -0 -0 -0 -0 -0 -0 -0 -0 -0 -0 -0 -0 -0 -0 -0 -0 -0 -0 -0 -0 -0 nan nan nan nan nan nan nan nan nan nan nan nan nan nan nan nan nan nan nan nan nan nan nan nan nan nan nan nan nan nan nan nan nan nan nan nan -0 -0 -0 -0 -0 -0 -0 -0 -0 -0 -0 -0 -0 -0 -0 -0 -0 -0 -0 -0 -0 -0 -0 -0 -0 -0 -0 -0
-0 -0 -0 -0 -0 -0 -0 -0 -0 -0 -0 -0 -0 -0 -0 -0 -0 -0 nan nan nan nan nan nan nan nan nan nan nan nan nan nan nan nan nan nan nan nan nan nan nan nan nan nan nan nan nan nan nan nan nan nan nan nan nan nan nan nan nan -0 -0 -0 -0 -0 -0 -0 -0 -0 -0 -0 -0 -0 -0 -0 -0 -0 -0 -0 -0 -0 -0 -0 -0 -0 -0 -0
-0 -0 -0 -0 -0 -0 -0 -0 -0 -0 -0 -0 nan nan nan nan nan nan nan nan nan nan nan nan nan nan nan nan nan nan nan nan nan nan nan nan nan nan nan nan nan nan nan nan nan nan nan nan nan nan nan nan nan nan nan nan nan nan nan nan nan -0 -0 -0 -0 -0 -0 -0 -0 -0 -0 -0 -0 -0 -0 -0 -0 -0 -0 -0 -0 -0 -0 -0 -0 -0
-0 -0 -0 -0 -0 -0 -0 -0 -0 -0 -0 -0 nan nan nan nan nan nan nan nan nan nan nan nan nan nan nan nan nan nan nan nan nan nan nan nan nan nan nan nan nan nan nan nan nan nan nan nan nan nan nan nan nan nan nan nan nan nan nan nan nan nan nan -0 -0 -0 -0 -0 -0 -0 -0 -0 -0 -0 -0 -0 -0 -0 -0 -0 -0 -0 -0 -0 -0 -0
-0 -0 -0 -0 -0 -0 -0 -0 -0 -0 -0 -0 -0 -0 nan nan nan nan nan nan nan nan nan nan nan nan nan nan nan nan nan nan nan nan nan nan nan nan nan nan nan nan nan nan nan nan nan nan nan nan nan nan nan nan nan nan nan nan nan nan nan nan nan -0 -0 -0 -0 -0 -0 -0 -0 -0 -0 -0 -0 -0 -0 -0 -0 -0 -0 -0 -0 -0 -0 -0
-0 -0 -0 -0 -0 -0 -0 -0 -0 -0 -0 -0 -0 -0 nan nan nan nan nan nan nan nan nan nan nan nan nan nan nan nan nan nan nan nan nan nan nan nan nan nan nan nan nan nan nan nan nan nan nan nan nan nan nan nan nan nan nan nan nan nan nan nan nan nan nan -0 -0 -0 -0 -0 -0 -0 -0 -0 -0 -0 -0 -0 -0 -0 -0 -0 -0 -0 -0 -0
-0 -0 -0 -0 -0 -0 -0 -0 -0 -0 -0 -0 -0 -0 nan nan nan nan nan nan nan nan nan nan nan nan nan nan nan nan nan nan nan nan nan nan nan nan nan nan nan nan nan nan nan nan nan nan nan nan nan nan nan nan nan nan nan nan nan nan nan nan nan nan nan -0 -0 -0 -0 -0 -0 -0 -0 -0 -0 -0 -0 -0 -0 -0 -0 -0 -0 -0 -0 -0
-0 -0 -0 -0 -0 -0 -0 -0 -0 -0 -0 -0 -0 -0 nan nan nan nan nan nan nan nan nan nan nan nan nan nan nan nan nan nan nan nan nan nan nan nan nan nan nan nan nan nan nan nan nan nan nan nan nan nan nan nan nan nan nan nan nan nan nan nan nan nan nan -0 -0 -0 -0 -0 -0 -0 -0 -0 -0 -0 -0 -0 -0 -0 -0 -0 -0 -0 -0 -0
-0 -0 -0 -0 -0 -0 -0 -0 -0 -0 -0 -0 -0 -0 -0 -0 -0 -0 nan nan nan nan nan nan nan nan nan nan nan nan nan nan nan nan -0 -0 -0 -0 nan nan nan nan nan -0 -0 -0 nan nan nan nan nan nan nan nan nan nan nan nan nan nan nan nan nan nan nan nan nan -0 -0 -0 -0 -0 -0 -0 -0 -0 -0 -0 -0 -0 -0 -0 -0 -0 -0 -0
-0 -0 -0 -0 -0 -0 -0 -0 -0 -0 -0 -0 -0 -0 -0 -0 -0 -0 -0 nan nan nan nan nan nan nan nan nan nan nan nan nan -0 -0 -0 -0 -0 -0 -0 nan nan -0 nan nan nan nan nan nan nan nan nan nan nan nan nan nan nan nan nan nan nan nan nan nan nan nan nan -0 -0 -0 -0 -0 -0 -0 -0 -0 -0 -0 -0 -0 -0 -0 -0 -0 -0 -0
-0 -0 -0 -0 -0 -0 -0 -0 nan nan nan -0 -0 -0 -0 -0 -0 -0 -0 -0 -0 -0 nan nan nan nan nan nan nan nan nan nan -0 -0 -0 -0 -0 -0 -0 -0 -0 -0 -0 nan nan nan nan nan nan nan nan nan nan nan nan nan nan nan nan nan nan nan nan nan nan nan nan nan -0 -0 -0 -0 -0 -0 -0 -0 -0 -0 -0 -0 -0 -0 -0 -0 -0 -0
-0 -0 -0 -0 -0 -0 nan nan nan nan nan nan -0 -0 -0 -0 -0 -0 -0 -0 -0 -0 -0 -0 -0 nan -0 nan nan nan nan nan -0 -0 -0 -0 -0 -0 -0 -0 -0 -0 -0 -0 -0 nan nan nan nan nan nan nan nan nan nan nan nan nan nan nan nan nan nan nan nan nan nan nan nan nan -0 -0 -0 -0 -0 -0 -0 -0 -0 -0 -0 -0 -0 -0 -0 -0
-0 -0 -0 nan nan nan nan nan nan nan nan nan nan nan -0 -0 -0 -0 -0 -0 -0 -0 -0 -0 -0 -0 -0 -0 -0 -0 -0 nan -0 -0 -0 -0 -0 -0 -0 -0 -0 -0 -0 -0 -0 -0 nan nan nan nan nan nan nan nan nan nan nan nan nan nan nan nan nan nan nan nan nan nan nan nan -0 -0 -0 -0 -0 -0 -0 -0 -0 -0 -0 -0 -0 -0 -0 -0
nan nan nan nan nan nan nan nan nan nan nan nan nan nan -0 -0 -0 -0 -0 -0 -0 -0 -0 -0 -0 -0 -0 -0 -0 -0 -0 -0 -0 -0 -0 -0 -0 -0 -0 -0 -0 -0 -0 -0 -0 -0 -0 -0 -0 nan nan nan nan nan nan nan nan nan nan nan nan nan nan nan nan nan nan -0 -0 -0 -0 -0 -0 -0 -0 -0 -0 -0 -0 -0 -0 -0 -0 -0 -0 -0
nan nan nan nan nan nan nan nan nan nan nan nan nan nan -0 -0 -0 -0 -0 -0 -0 -0 -0 -0 -0 -0 -0 -0 -0 -0 -0 -0 -0 -0 -0 -0 -0 -0 -0 -0 -0 -0 -0 -0 -0 -0 -0 -0 -0 nan nan nan nan nan nan nan nan nan nan nan nan nan nan nan nan nan nan -0 -0 -0 -0 -0 -0 -0 -0 -0 -0 -0 -0 -0 -0 -0 -0 -0 -0 -0
nan nan nan nan nan nan nan nan nan nan nan nan -0 -0 -0 -0 -0 -0 -0 -0 -0 -0 -0 nan nan nan -0 -0 -0 -0 -0 -0 -0 -0 -0 -0 -0 -0 -0 -0 -0 -0 -0 -0 -0 -0 -0 -0 -0 -0 nan nan nan nan nan nan nan nan nan nan nan nan nan nan nan -0 -0 -0 -0 -0 -0 -0 -0 -0 -0 -0 -0 -0 -0 -0 -0 -0 -0 -0 -0 -0
nan nan nan nan nan nan nan nan nan nan nan -0 -0 -0 -0 nan -0 -0 -0 nan nan nan nan nan nan nan nan nan -0 -0 -0 -0 -0 -0 -0 -0 -0 -0 -0 -0 -0 -0 -0 -0 -0 -0 -0 -0 -0 -0 -0 -0 nan nan nan nan nan nan -0 nan nan nan nan -0 -0 -0 -0 -0 -0 -0 -0 -0 -0 -0 -0 -0 -0 -0 -0 -0 -0 -0 -0 -0 -0 -0
nan nan nan nan nan nan nan nan -0 -0 -0 nan nan nan nan nan nan nan nan nan nan nan nan nan nan nan nan nan nan nan nan -0 -0 -0 -0 -0 -0 -0 -0 -0 -0 -0 -0 -0 -0 -0 -0 -0 -0 -0 -0 -0 -0 -0 -0 nan nan -0 -0 -0 -0 nan -0 -0 -0 -0 -0 -0 -0 -0 -0 -0 -0 -0 -0 -0 -0 -0 -0 -0 -0 -0 -0 -0 -0 -0
nan nan nan nan nan nan nan nan -0 -0 -0 nan nan nan nan -0 -0 -0 nan nan nan nan nan nan nan nan nan nan nan nan nan -0 -0 -0 -0 -0 -0 -0 -0 -0 -0 -0 -0 -0 -0 -0 -0 -0 -0 -0 -0 -0 -0 -0 nan nan nan nan -0 nan nan -0 -0 -0 -0 -0 -0 -0 -0 -0 -0 -0 -0 -0 -0 -0 -0 -0 -0 -0 -0 -0 -0 -0 -0 -0
nan nan nan nan nan nan nan -0 nan nan nan nan nan nan nan -0 -0 -0 nan nan nan nan nan nan nan nan nan nan nan nan nan -0 -0 -0 -0 -0 -0 -0 -0 -0 -0 -0 -0 -0 -0 -0 -0 -0 -0 -0 -0 -0 -0 -0 nan nan nan nan nan -0 -0 -0 -0 nan nan nan -0 -0 -0 -0 -0 -0 -0 -0 -0 -0 -0 -0 -0 -0 -0 -0 -0 -0 -0 -0
nan nan nan nan nan nan nan nan nan nan nan nan nan nan nan -0 -0 -0 nan nan nan nan nan nan nan nan nan nan nan nan nan nan nan nan nan -0 -0 -0 -0 -0 -0 -0 -0 -0 -0 nan nan nan nan nan nan nan nan nan nan nan nan nan nan -0 -0 -0 -0 -0 -0 -0 -0 -0 -0 -0 -0 -0 -0 -0 -0 -0 -0 -0 -0 -0 -0 -0 -0 -0 -0 -0
nan nan nan nan nan nan nan nan nan nan nan nan nan nan nan -0 -0 -0 nan nan nan nan nan nan nan nan nan nan nan nan nan nan nan nan nan nan -0 -0 -0 -0 -0 nan nan nan nan nan nan nan nan nan nan nan nan nan nan nan nan nan -0 -0 -0 -0 -0 -0 -0 -0 -0 -0 -0 -0 -0 -0 -0 -0 -0 -0 -0 -0 -0 -0 -0 -0 -0 -0 -0 -0
nan nan nan nan nan nan nan nan nan nan nan nan nan nan nan nan nan nan nan nan nan nan nan nan nan nan nan nan nan nan nan nan nan nan nan nan nan nan nan nan nan nan nan nan nan nan nan nan nan nan nan nan nan nan nan nan nan -0 -0 -0 -0 -0 -0 -0 -0 -0 -0 -0 -0 -0 -0 -0 -0 -0 -0 -0 -0 -0 -0 -0 -0 -0 -0 -0 -0 -0
nan nan nan nan nan nan nan nan nan nan nan nan nan nan nan nan nan nan nan nan nan nan nan nan nan nan nan nan nan nan nan nan nan nan nan nan nan nan nan nan nan nan nan nan nan nan nan nan nan nan nan nan nan nan nan nan nan -0 -0 -0 -0 -0 -0 -0 -0 -0 -0 -0 -0 -0 -0 -0 -0 -0 -0 -0 -0 -0 -0 -0 -0 -0 -0 -0 -0 -0
nan nan nan nan nan nan nan nan nan nan nan nan nan nan nan nan nan nan nan nan nan nan nan nan nan nan nan nan nan nan nan nan nan nan nan nan nan nan nan nan nan nan nan nan nan nan nan nan nan nan nan nan nan nan nan -0 -0 -0 -0 -0 -0 -0 -0 -0 -0 -0 -0 -0 -0 -0 -0 -0 -0 -0 -0 -0 -0 -0 -0 -0 -0 -0 -0 -0 -0 -0
nan nan -0 nan nan nan nan nan nan nan nan nan nan nan nan nan -0 -0 nan nan nan nan nan nan nan nan nan nan nan nan nan nan nan nan nan nan nan nan nan nan nan nan nan nan nan nan nan nan nan nan nan nan nan nan -0 -0 -0 -0 nan -0 -0 -0 -0 -0 -0 -0 -0 -0 -0 -0 -0 -0 -0 -0 -0 -0 -0 -0 -0 -0 -0 -0 -0 -0 -0 -0
nan nan -0 -0 -0 nan nan nan nan nan nan nan nan nan nan nan nan nan nan nan nan nan nan nan nan nan nan nan nan nan nan nan nan nan nan nan nan nan nan nan nan nan nan nan nan nan nan nan nan nan nan nan -0 -0 -0 nan nan nan nan -0 -0 -0 -0 -0 -0 -0 -0 -0 -0 -0 -0 -0 -0 -0 -0 -0 -0 -0 -0 -0 -0 -0 -0 -0 -0 -0
nan nan -0 -0 -0 -0 nan nan nan nan nan nan nan nan nan nan nan nan nan nan nan nan nan nan nan nan nan nan nan nan nan nan nan nan nan nan nan nan nan nan nan nan nan nan nan nan nan nan nan nan nan nan nan nan nan nan nan nan nan -0 -0 -0 -0 -0 -0 -0 -0 -0 -0 -0 -0 -0 -0 -0 -0 -0 -0 -0 -0 -0 -0 -0 -0 -0 -0 -0
Wind_Speed
2 2 2 4 4 4 3 5 6 6 6 6 6 6 6 7 7 7 9 9 9 9 8 8 8 8 9 9 11 13 14 15 16 16 16 16 16 16 16 16 16 16 16 16 16 16 16 16 17 17 17 17 17 17 17 17 17 17 17 17 17 17 18 18 19 19 20 20 20 20 21 21 21 21 21 21 22 22 22 22 22 22 22 23 23 23
2 2 2 4 4 4 3 5 7 7 7 7 7 7 7 8 7 6 7 8 8 8 7 7 8 8 9 8 10 12 14 15 16 16 16 16 16 16 16 16 16 16 16 16 16 16 16 16 16 16 16 16 16 16 16 17 16 16 16 17 17 17 18 18 19 19 20 20 20 20 21 21 21 21 21 21 21 22 22 22 22 22 23 23 23 23
2 2 2 4 4 4 3 5 6 7 7 7 7 8 8 8 7 6 6 7 7 7 7 7 7 7 8 8 9 12 13 15 15 16 16 16 16 16 16 16 16 16 16 16 16 16 16 16 16 16 16 16 16 16 16 16 16 16 16 16 17 17 18 18 19 19 20 20 20 20 21 21 21 21 21 21 22 22 22 22 22 23 23 23 23 23
2 2 3 3 3 3 4 4 5 6 6 7 7 8 8 7 7 6 7 7 7 7 7 7 7 7 7 7 8 11 13 14 15 15 15 16 16 16 16 16 16 16 16 16 16 16 16 16 16 15 15 16 16 16 16 16 16 16 16 16 17 17 18 18 19 19 20 20 20 20 21 21 21 21 21 21 22 22 22 22 23 23 23 23 24 24
2 2 3 3 3 3 3 4 4 5 5 6 7 7 7 6 6 6 6 7 7 7 7 7 7 7 6 6 8 10 13 14 15 15 15 15 15 16 16 16 16 16 16 16 16 16 15 15 15 15 15 15 16 16 16 16 16 16 16 16 17 17 18 18 19 19 20 20 20 20 21 21 21 21 21 22 22 22 22 22 23 23 23 24 24 24
2 2 2 2 2 2 3 3 4 4 4 5 5 5 5 5 6 6 6 7 7 7 6 6 7 7 7 7 8 10 12 13 14 15 15 15 15 15 16 16 16 16 16 16 15 15 15 15 15 15 15 15 15 15 15 16 16 16 16 17 17 18 18 19 19 19 20 20 20 21 21 21 21 21 22 22 22 22 22 22 23 23 23 24 24 24
2 2 2 2 2 2 2 2 3 4 4 4 4 4 4 5 5 6 7 6 6 6 6 6 6 7 7 7 9 10 11 12 13 14 14 15 15 15 16 16 16 16 16 15 15 15 15 14 15 15 15 15 15 15 15 15 16 16 17 17 18 18 19 19 20 20 20 20 21 21 21 21 21 21 22 22 22 22 22 22 23 23 24 24 24 24
3 2 3 3 2 2 2 2 3 4 4 4 4 4 4 4 5 6 7 7 6 6 5 5 6 6 6 7 8 9 9 9 10 11 12 13 13 14 15 15 16 16 15 15 15 15 14 14 14 15 15 15 15 15 15 15 16 16 17 18 18 19 19 20 20 20 20 21 21 21 21 21 21 21 22 22 22 22 22 22 23 23 23 24 24 25
3 3 3 3 3 3 2 2 3 4 5 4 4 4 5 5 5 5 6 6 6 5 5 5 6 6 6 7 8 8 8 8 9 9 10 10 11 12 13 14 14 15 15 15 15 14 14 14 14 15 15 15 15 15 15 15 16 17 17 18 19 19 20 20 20 20 21 21 21 21 21 21 21 21 22 22 22 22 22 22 22 23 23 24 24 24
3 3 3 2 2 2 3 3 3 4 5 4 4 4 4 6 6 6 6 5 5 5 5 6 6 6 6 6 7 7 8 9 9 10 11 11 12 13 13 12 12 13 14 14 14 14 13 14 14 14 14 14 14 15 15 15 16 17 18 18 19 19 20 20 20 20 21 21 21 21 21 21 21 21 21 22 22 22 22 22 22 22 23 23 24 24
2 2 2 2 2 2 2 3 3 3 5 5 4 4 4 5 6 6 7 6 6 6 5 6 6 6 6 6 6 7 7 8 8 9 11 12 13 13 12 12 11 12 13 13 13 12 12 13 13 14 14 14 14 14 15 15 16 17 18 18 19 19 20 20 20 20 20 21 21 21 21 21 21 21 21 21 22 22 22 22 22 22 23 23 23 24
2 2 2 2 2 2 2 3 3 3 4 4 4 4 4 5 5 5 6 6 6 6 6 6 6 6 6 6 6 6 7 7 7 8 8 9 10 10 10 9 10 10 11 11 11 11 11 12 13 13 12 13 13 14 15 15 16 17 18 19 19 19 20 20 20 20 20 20 21 21 21 21 21 21 21 21 21 21 22 22 22 22 22 23 23 23
1 1 1 2 2 2 3 3 3 3 3 4 4 5 5 5 5 5 5 6 6 6 7 6 6 6 6 5 5 6 7 7 7 7 7 7 7 7 7 7 7 7 8 8 8 8 10 11 11 11 11 12 12 13 15 16 17 18 18 19 19 19 20 20 20 20 20 20 21 21 21 21 21 21 21 21 21 21 21 22 22 22 22 22 23 23
2 2 2 2 2 3 3 3 3 3 3 4 4 4 4 5 5 5 5 5 5 6 6 7 7 6 5 5 5 6 7 7 7 7 7 7 7 7 7 7 7 7 7 7 7 7 8 9 9 9 10 11 12 13 14 16 17 18 18 19 19 20 20 20 20 20 20 20 20 21 21 21 21 21 21 21 21 21 21 22 22 22 22 22 22 23
2 2 2 2 3 3 3 3 3 3 3 4 4 4 4 5 5 5 5 5 5 5 6 6 7 6 4 4 5 6 7 7 7 7 8 7 7 7 7 7 7 7 6 7 7 7 8 7 7 7 8 10 11 12 14 15 17 18 18 19 19 20 20 20 20 20 20 20 20 20 21 21 21 21 21 21 21 21 21 21 21 22 22 22 22 22
2 2 3 3 3 3 3 3 3 3 4 4 4 4 5 5 4 4 5 5 5 5 5 6 6 5 4 4 5 6 7 7 7 8 8 8 7 7 7 7 7 7 6 6 6 7 7 6 7 7 8 10 12 14 15 16 17 18 19 19 19 19 20 20 20 20 20 20 20 20 21 21 21 21 21 21 21 21 21 21 21 21 21 22 22 22
2 2 3 3 3 3 3 3 3 3 4 4 4 4 4 4 4 4 4 4 4 4 4 5 5 5 4 4 5 6 7 7 7 7 8 8 7 7 7 7 7 7 7 7 7 6 6 6 6 7 7 10 13 15 16 16 17 18 19 19 19 19 20 20 20 20 20 20 20 20 20 21 21 21 21 21 21 21 21 21 21 21 21 21 22 22
2 2 2 3 3 3 3 2 2 3 3 4 4 4 4 4 4 4 4 4 4 4 4 4 4 4 5 5 5 6 7 7 7 7 8 8 7 7 7 6 7 7 7 7 7 6 6 6 7 7 8 12 14 15 16 16 17 18 18 19 19 19 20 20 20 20 20 20 20 20 20 21 21 21 21 21 21 21 21 21 21 21 21 21 22 22
2 2 2 2 2 2 3 2 2 3 3 4 4 4 4 4 4 4 4 4 4 4 5 5 5 5 5 5 6 6 7 7 7 7 8 8 7 7 7 6 7 7 7 7 7 7 6 6 7 9 11 13 14 15 15 16 17 18 18 19 19 19 20 20 20 20 20 20 20 20 20 21 21 21 21 21 21 21 21 21 21 21 21 21 22 22
3 3 3 2 2 2 2 2 3 3 3 4 4 4 4 5 5 5 4 4 4 5 4 5 5 5 5 6 7 7 7 7 7 7 7 8 8 7 7 7 7 7 7 7 7 7 7 7 8 9 11 12 13 14 15 16 17 18 18 19 19 19 19 19 19 20 20 20 20 20 20 21 21 21 20 21 21 21 21 21 21 21 21 21 22 22
2 2 2 2 2 2 2 2 3 3 3 4 4 4 4 4 5 5 5 5 5 5 5 5 5 6 5 6 7 7 7 6 6 6 6 6 6 6 6 7 7 8 8 7 7 7 7 7 7 7 9 11 13 14 15 16 16 17 18 18 19 19 19 19 19 19 19 20 20 20 20 21 21 21 20 20 21 21 21 21 21 21 21 21 22 22
2 2 2 3 3 3 2 2 3 3 4 5 4 4 4 4 4 5 5 5 5 6 6 6 6 6 6 7 7 6 5 4 5 5 5 6 7 7 6 6 7 7 8 7 7 7 8 8 7 8 9 12 13 14 14 15 16 17 18 18 18 19 19 19 19 19 19 20 20 20 20 21 21 21 21 21 21 21 21 21 21 21 21 22 22 22
1 1 2 3 3 3 3 3 2 3 4 4 4 4 4 4 4 4 5 5 5 6 6 6 7 7 7 6 6 5 3 3 3 4 5 6 7 7 7 7 7 7 7 7 8 8 8 8 8 8 9 11 12 13 13 15 16 17 17 18 18 19 19 19 19 19 19 20 20 20 20 20 21 20 20 20 21 21 21 21 21 21 21 22 22 21
1 1 2 3 4 4 3 3 2 2 3 4 4 4 4 4 4 4 4 4 5 5 6 6 7 6 6 6 6 5 3 2 3 4 4 5 6 7 7 7 7 8 8 8 8 8 9 8 8 8 8 10 11 12 13 14 15 16 17 18 18 18 19 19 19 19 19 20 20 20 20 20 20 20 20 20 20 21 21 21 21 21 22 22 22 21
2 3 4 4 5 5 5 4 4 4 4 4 4 4 4 5 5 4 4 4 5 5 6 7 7 6 5 6 5 5 4 3 3 4 4 5 6 7 7 7 7 8 8 8 8 8 9 8 8 7 7 8 9 11 12 14 15 16 17 18 18 18 18 18 19 19 19 19 20 20 20 20 20 20 20 20 20 20 21 21 21 21 22 22 21 20
6 6 6 6 7 8 9 8 9 9 9 7 5 5 5 5 5 4 4 4 5 6 7 7 7 6 6 5 5 4 4 3 3 3 4 4 6 7 6 6 7 8 8 8 8 8 9 9 8 7 6 6 8 10 12 14 15 16 17 17 18 18 18 18 18 19 19 19 20 20 20 20 20 20 20 20 20 20 20 21 21 21 22 21 20 18
8 8 7 8 8 9 10 11 12 12 12 10 8 7 5 5 5 5 5 5 6 6 7 7 7 7 6 5 5 5 5 3 3 3 4 5 6 6 6 6 7 8 9 8 8 8 9 9 8 7 6 5 6 8 12 14 15 16 17 17 17 17 18 18 18 19 19 19 20 20 20 20 19 19 20 20 20 20 20 21 21 21 20 18 16 14
7 7 7 7 8 9 9 10 10 10 11 10 10 9 7 5 5 5 5 5 6 6 6 7 7 6 6 6 6 5 5 3 3 4 5 5 5 5 6 6 7 8 8 8 8 8 9 8 7 6 5 6 6 8 11 13 14 15 16 16 16 17 17 18 18 19 19 20 20 20 19 19 19 19 19 19 19 20 20 21 21 20 18 15 11 9
5 5 6 6 7 7 7 8 8 8 9 10 10 9 7 5 4 5 5 5 5 6 6 6 6 6 6 6 6 6 4 3 4 5 5 5 5 5 6 6 7 7 7 7 7 7 6 6 5 5 5 7 7 8 9 11 12 13 13 14 15 16 17 17 18 19 20 20 20 19 19 19 19 19 19 19 19 19 20 20 20 17 14 11 9 8
3 3 3 4 5 5 5 5 6 6 7 8 8 8 6 4 4 4 4 5 5 5 6 6 6 6 6 6 6 5 3 3 4 5 6 5 5 5 6 6 7 7 6 7 6 6 5 5 4 5 6 8 8 8 8 9 9 9 10 11 13 14 15 17 18 19 20 20 19 19 19 19 19 19 19 19 19 19 19 20 18 15 10 9 8 8
2 2 2 3 3 3 3 4 4 5 6 6 6 6 5 4 4 4 4 4 5 5 6 6 6 6 6 5 5 4 3 3 5 6 6 5 5 5 6 6 6 6 6 5 5 6 6 5 5 5 7 8 8 8 8 8 8 8 8 9 9 11 14 16 17 18 18 18 19 19 19 19 19 19 19 19 19 19 19 20 18 14 10 9 8 8
2 2 2 3 3 3 3 3 3 4 5 5 5 5 4 4 4 4 4 4 4 5 5 6 6 6 6 5 5 4 4 4 5 7 7 5 4 5 6 6 6 6 5 4 4 5 5 6 6 6 7 8 8 8 8 8 8 8 8 8 8 10 13 14 15 15 15 16 17 18 18 19 19 19 19 19 19 19 19 20 18 15 11 9 9 9
2 2 2 3 3 3 3 3 3 4 4 4 4 4 4 4 4 4 4 4 4 4 5 6 6 6 6 6 5 5 4 4 6 7 8 5 4 4 5 6 6 6 6 5 4 4 5 6 6 7 8 8 8 8 8 8 8 8 8 8 8 9 11 12 12 12 13 13 14 15 16 17 17 18 18 19 19 19 19 20 19 17 13 10 9 9
2 3 3 3 3 3 4 4 4 4 4 4 4 4 4 5 5 5 5 4 4 4 5 5 6 6 6 6 5 5 5 5 6 8 8 6 5 4 5 6 6 6 6 5 5 5 5 6 7 7 8 8 8 7 8 8 8 8 8 8 8 9 10 10 10 10 11 11 11 11 12 13 14 15 16 17 18 19 20 20 20 19 17 12 10 9
3 3 3 4 4 4 4 4 5 4 4 4 5 5 5 5 5 5 5 5 5 4 4 5 5 5 6 5 6 6 5 5 7 8 8 6 5 4 5 5 5 6 6 6 6 5 5 7 8 8 8 8 7 7 6 7 7 8 8 8 9 9 9 9 10 10 10 10 10 10 10 10 11 12 13 15 17 19 20 21 21 20 19 16 13 11
3 4 4 4 4 4 4 5 5 5 5 5 5 5 5 5 5 5 5 5 5 5 5 5 5 5 5 5 6 6 7 7 7 8 8 6 5 4 4 5 5 6 6 7 6 6 6 7 8 9 9 9 8 7 6 7 8 8 8 9 9 9 9 9 9 10 10 10 10 10 9 10 10 10 11 15 17 19 20 20 20 19 19 18 16 14
4 4 4 4 4 4 4 5 5 5 5 5 5 6 6 6 6 6 6 6 6 6 5 5 5 5 5 5 6 6 7 7 7 8 8 6 5 5 4 5 5 6 6 6 7 7 7 8 8 9 8 8 7 7 7 8 8 9 9 9 9 9 9 9 9 10 10 10 10 10 10 10 10 10 11 15 16 17 18 18 18 18 18 18 17 16
4 4 4 4 4 4 4 5 5 5 5 5 6 6 6 6 7 7 7 7 6 6 6 5 5 6 7 7 8 8 8 8 8 8 8 6 5 5 5 5 6 6 6 6 7 7 7 8 8 8 8 7 8 8 9 9 9 9 9 9 9 9 9 9 9 9 10 10 10 11 11 11 10 10 11 12 12 12 12 13 13 15 16 15 15 15
3 3 4 4 4 4 4 5 5 5 5 5 6 6 6 7 7 7 7 7 6 6 6 6 6 6 7 7 8 8 8 8 7 7 7 5 5 4 5 6 6 6 6 6 6 7 7 7 7 8 8 8 9 9 9 9 9 10 10 10 9 8 8 9 9 10 10 10 10 11 11 10 10 10 10 10 10 10 10 10 11 12 12 11 11 12
3 3 4 4 4 4 4 5 5 5 5 6 6 7 6 6 6 6 6 6 6 6 7 7 7 6 6 6 6 7 6 5 5 5 5 5 4 4 5 6 6 7 7 6 6 6 7 7 8 8 8 8 9 9 9 9 10 10 11 9 8 7 8 9 9 9 9 9 10 10 10 10 10 10 10 10 10 10 10 9 10 10 11 10 9 9
4 4 4 4 4 5 5 5 5 5 5 6 6 5 5 6 6 6 6 6 6 6 6 6 6 6 6 6 5 5 4 4 5 5 5 5 6 5 5 5 6 6 7 7 7 7 7 8 8 9 9 9 9 10 10 10 11 12 12 10 9 9 10 10 9 9 9 9 10 10 11 11 11 11 10 10 10 9 9 9 10 10 9 8 8 8
4 4 4 4 4 4 5 5 6 6 6 5 5 5 5 5 6 6 7 7 7 6 6 6 6 6 6 5 5 4 3 4 4 5 5 6 6 6 6 6 6 6 7 8 8 8 8 8 8 9 9 9 9 9 9 10 11 11 11 10 11 11 10 9 8 8 9 10 10 10 11 10 10 10 11 11 10 10 10 10 10 11 10 8 7 7
4 4 4 4 5 5 5 6 6 5 5 5 5 5 5 5 6 6 7 7 7 7 7 7 7 7 6 6 5 4 4 4 5 5 6 6 7 7 7 7 7 7 7 8 8 8 8 8 8 8 8 8 9 9 10 10 10 10 10 10 11 10 8 8 8 9 9 9 10 10 10 10 10 10 10 10 10 9 9 10 10 11 10 8 8 7
4 4 4 4 4 5 5 5 5 5 5 5 5 5 5 6 6 7 7 6 7 7 7 6 6 6 6 6 6 5 5 5 5 6 6 7 7 8 8 8 9 8 8 8 8 8 9 9 8 8 8 8 9 9 10 10 10 10 9 10 10 10 8 9 9 10 10 10 9 9 10 10 11 11 10 10 9 9 8 8 8 9 9 8 8 7
3 4 4 4 4 4 4 5 5 5 5 5 5 5 5 6 6 6 6 6 7 7 6 6 6 6 5 6 6 6 6 5 5 5 6 7 8 9 9 8 8 8 8 8 8 8 9 9 9 9 8 8 8 9 10 10 10 10 10 10 10 10 10 10 10 10 10 10 10 10 11 11 11 11 10 9 9 8 8 8 9 9 9 8 8 7
3 4 4 4 4 4 5 5 5 5 5 5 5 5 5 6 6 6 6 7 7 6 6 6 6 5 6 6 7 6 6 6 6 6 6 6 7 7 7 7 8 8 8 8 8 9 9 9 9 9 9 8 9 9 9 9 9 10 10 10 10 10 10 10 10 10 10 10 10 11 12 12 12 11 10 10 9 9 8 8 9 9 9 8 8 7
4 4 4 4 4 5 5 5 5 5 5 5 5 5 5 6 6 6 6 6 6 6 6 6 6 6 6 7 7 7 7 8 8 7 7 7 7 7 7 7 8 8 8 8 9 9 10 10 10 10 9 9 9 8 8 8 9 9 10 10 10 10 10 9 9 10 10 10 11 11 13 12 11 11 10 10 9 9 8 8 9 9 9 8 8 7
4 4 4 5 5 5 5 5 5 6 6 6 6 6 6 6 7 7 6 6 6 6 6 6 6 6 6 7 7 7 8 8 8 8 8 7 7 7 7 7 7 8 8 8 9 10 10 11 11 11 10 9 8 8 9 8 9 9 9 10 10 10 10 10 10 10 10 10 11 12 12 11 11 11 11 11 10 9 8 9 9 8 8 8 8 8
4 4 4 5 5 5 5 5 6 6 6 6 6 6 6 6 7 7 6 6 6 6 6 7 7 7 7 7 7 7 8 8 8 7 7 7 7 8 8 8 8 8 8 8 8 8 9 9 10 10 9 9 8 8 9 9 9 9 9 9 9 9 9 9 10 10 10 11 12 12 12 10 10 10 10 11 11 10 10 9 9 9 8 8 8 8
4 4 4 4 5 5 5 5 6 6 6 6 7 6 6 6 6 6 6 6 6 6 6 7 7 7 7 7 7 8 8 8 7 7 7 7 7 8 8 8 9 9 8 8 7 7 7 6 6 7 7 7 7 7 8 9 9 9 9 8 8 8 9 9 10 10 10 10 11 11 12 10 10 9 9 10 11 11 11 10 9 9 8 8 8 8
4 4 4 4 4 5 5 5 5 6 6 7 7 6 6 6 6 6 6 6 6 6 6 6 7 7 7 8 8 8 8 8 8 8 8 7 7 8 8 8 9 9 9 9 8 7 7 6 5 5 3 4 4 5 6 8 9 9 9 8 8 8 8 9 9 10 11 10 10 10 11 10 10 9 8 9 10 11 11 10 10 9 9 9 9 9
Wind_Direction
348 339 341 342 335 328 340 358 358 353 348 346 344 343 341 339 338 340 342 341 340 341 341 342 342 342 344 348 350 351 351 350 349 349 349 349 349 349 348 347 345 344 343 342 341 340 339 339 338 338 338 338 338 339 339 340 340 341 340 339 337 335 333 332 331 331 332 333 333 333 333 332 332 332 331 331 330 330 329 328 326 324 323 322 321 320
342 333 339 343 338 334 340 2 3 359 351 345 343 341 340 340 340 341 342 341 342 341 341 341 340 340 340 343 347 348 348 347 347 347 347 348 348 348 347 346 345 344 343 342 341 340 340 339 339 339 339 339 340 340 340 341 341 341 340 338 336 334 332 332 332 332 332 333 332 332 332 331 331 330 330 330 329 328 327 325 324 323 321 320 320 319
342 337 350 344 340 339 346 3 5 2 352 343 339 339 339 340 342 342 342 341 341 341 340 340 338 337 337 338 343 345 345 344 344 344 345 346 346 346 346 345 344 343 343 342 342 341 341 340 340 340 340 340 341 341 341 341 341 340 339 336 334 333 332 332 332 332 332 332 331 331 330 330 330 329 329 328 328 327 326 324 323 322 321 320 320 320
348 348 355 342 339 342 354 4 6 2 352 341 336 337 341 343 343 343 342 339 339 338 338 338 336 335 334 336 339 341 341 340 340 341 342 343 344 345 345 344 343 343 343 342 342 342 342 341 341 341 341 341 341 341 341 341 340 339 337 335 333 332 331 331 331 331 331 331 330 330 329 329 329 328 328 328 327 326 325 324 323 322 322 321 322 321
6 2 354 341 338 344 354 4 7 1 349 339 336 338 345 346 344 342 340 338 337 336 335 335 335 334 332 334 336 337 337 337 337 338 339 341 342 343 343 343 342 342 342 342 342 342 342 342 341 341 341 342 341 341 341 340 339 337 335 333 332 331 331 331 331 330 330 330 329 329 329 329 328 328 328 327 327 326 325 324 323 323 323 323 323 323
13 12 354 343 341 342 343 2 8 3 348 339 337 340 346 346 344 341 339 337 336 334 332 331 332 332 331 334 335 335 335 335 335 336 337 339 340 341 341 341 340 340 340 341 341 341 342 341 341 341 341 341 341 341 340 339 338 336 334 332 331 331 331 331 331 330 330 330 329 329 329 329 328 328 328 327 326 326 325 324 324 323 324 324 324 323
5 10 358 351 346 340 334 360 11 8 350 340 338 341 346 346 344 340 338 336 334 331 329 328 328 329 330 333 335 335 335 334 334 335 336 337 338 338 339 339 338 338 338 339 339 340 340 340 340 340 341 341 340 340 339 338 336 335 333 332 331 331 331 332 331 331 331 330 330 330 329 329 328 328 327 327 326 325 324 324 324 324 324 324 324 324
356 2 4 360 351 339 334 1 11 9 353 343 339 341 347 348 344 339 334 333 332 330 328 327 326 327 329 332 334 335 336 335 334 334 335 336 336 336 336 336 336 336 336 337 337 338 338 338 338 339 339 339 339 339 338 337 335 334 332 332 332 332 332 332 332 332 331 331 330 330 329 329 328 327 326 326 325 324 324 324 325 325 325 325 325 324
358 357 2 1 351 339 337 356 8 8 356 347 343 343 346 347 343 338 333 333 333 333 330 328 327 327 328 330 332 334 337 335 334 334 333 333 333 333 333 332 332 333 334 334 335 335 335 336 336 337 338 338 338 337 336 335 333 332 332 332 332 333 333 333 332 331 331 331 330 329 329 328 327 326 326 325 325 324 325 325 325 326 325 325 325 325
6 359 355 355 351 345 342 348 359 3 357 351 349 349 348 345 342 337 333 334 336 336 333 330 328 326 326 328 330 333 334 333 332 331 331 330 329 328 328 328 329 330 331 331 331 331 332 333 334 335 335 335 335 335 334 333 332 332 332 332 332 333 332 332 331 331 330 330 329 329 328 327 326 326 325 325 325 325 325 326 326 326 326 326 325 325
8 2 351 346 349 353 352 349 351 356 357 354 352 352 353 348 341 336 333 334 335 336 334 331 328 326 325 327 330 333 333 332 331 331 330 329 328 327 326 326 326 327 328 328 328 328 329 331 332 332 333 333 333 333 332 331 331 331 331 332 332 332 332 331 331 330 330 330 329 328 327 327 326 326 325 325 325 326 326 326 326 326 326 326 326 326
3 358 347 343 348 356 360 352 351 355 359 357 354 352 351 349 343 336 331 332 334 335 332 329 325 324 324 328 331 333 334 332 331 331 329 329 328 328 327 326 326 327 327 326 326 326 327 329 330 330 330 330 331 331 331 330 330 331 331 332 332 332 331 331 331 330 330 329 328 328 327 326 326 326 325 326 326 326 327 327 327 326 326 326 326 326
4 350 339 347 357 2 5 355 353 357 5 2 356 350 345 343 339 334 328 329 332 332 330 326 323 322 323 330 335 337 335 333 331 330 329 328 328 328 326 326 326 327 327 324 324 325 327 328 327 327 327 328 329 330 330 329 329 330 330 331 331 331 331 331 331 330 330 329 328 327 327 326 326 326 326 326 326 327 327 326 326 326 326 326 326 326
7 355 348 358 7 11 10 360 356 357 1 1 354 346 337 334 333 331 327 328 330 330 327 324 322 322 324 336 342 343 338 333 331 329 328 327 327 325 324 322 323 324 324 323 322 324 327 326 324 324 325 327 328 329 329 329 329 329 330 330 331 331 331 331 330 330 330 329 328 327 327 326 326 326 326 327 327 327 327 326 326 326 326 326 326 326
7 360 360 7 12 14 11 2 356 354 356 353 344 335 328 330 332 333 330 330 330 329 326 324 323 323 325 338 347 348 343 337 332 328 326 324 323 322 321 320 320 320 322 321 320 321 323 322 321 320 323 326 328 328 327 326 327 329 329 330 330 330 330 330 330 330 330 329 328 327 327 326 327 327 327 327 327 327 327 327 327 327 327 327 326 325
10 7 6 8 12 15 11 1 352 347 348 344 336 330 328 334 337 335 331 330 330 329 328 327 326 325 326 336 347 350 348 340 333 328 324 321 320 320 321 320 318 319 320 320 319 319 320 319 319 319 320 323 324 324 324 324 326 328 329 329 329 330 330 330 330 330 329 329 328 327 327 327 327 327 327 327 327 327 327 327 327 327 327 327 326 325
22 18 12 6 8 10 8 354 344 340 342 336 332 331 333 337 337 334 330 330 330 330 331 330 329 327 325 332 344 352 351 341 333 326 321 318 317 318 320 318 317 318 319 318 318 318 318 318 318 318 317 320 321 321 322 323 325 327 328 329 329 330 330 330 330 330 329 329 328 328 328 327 328 328 328 327 328 328 328 328 328 328 328 327 326 325
36 30 19 11 6 1 351 340 339 342 339 334 333 334 336 337 334 332 330 331 331 331 330 329 326 325 323 326 336 346 349 340 331 324 319 316 316 317 318 317 316 316 317 316 316 317 317 317 317 315 313 315 317 318 320 323 325 326 328 328 329 329 330 330 330 330 329 328 328 328 328 328 328 328 328 328 328 328 328 328 328 328 328 327 326 326
39 35 26 15 1 345 332 334 345 351 342 336 335 336 337 338 336 334 334 334 332 330 328 324 322 319 318 319 325 334 341 336 330 323 318 316 315 316 318 319 319 317 315 315 315 316 316 315 312 310 309 311 313 315 319 322 325 326 327 328 329 329 330 330 330 329 329 328 328 328 328 329 329 329 329 329 329 329 328 328 328 328 328 327 326 326
37 33 27 8 340 321 316 338 358 1 345 336 334 336 339 339 338 337 337 336 333 329 325 321 318 317 314 314 318 325 333 333 328 322 317 314 313 314 320 324 322 319 315 314 316 317 317 315 311 308 307 308 311 314 318 321 324 325 326 327 328 329 329 329 329 329 328 328 328 328 329 329 329 329 329 329 329 329 328 328 328 328 327 327 326 327
41 32 19 345 317 305 309 356 13 7 341 338 339 341 344 340 338 337 337 334 331 328 324 319 316 313 311 310 312 316 324 328 328 323 316 312 311 314 323 326 324 318 314 315 316 318 318 315 311 307 305 306 309 312 316 320 322 324 325 326 327 328 328 328 328 328 328 328 328 328 329 329 329 329 329 329 329 329 329 328 328 328 327 327 327 327
44 23 353 325 311 310 335 23 22 2 341 346 349 350 347 341 336 333 332 330 327 324 320 315 310 306 303 301 302 305 314 323 327 323 314 310 312 317 326 326 322 317 314 316 318 319 318 313 308 304 302 304 307 310 315 318 320 322 323 325 326 326 327 327 327 327 327 328 328 328 329 329 329 329 329 329 329 329 329 328 328 328 327 327 327 327
47 2 330 328 332 346 27 47 31 356 346 356 358 355 346 336 329 324 322 321 319 315 311 305 301 297 294 294 296 303 318 333 332 323 313 310 312 317 325 323 320 316 315 318 319 319 316 311 306 302 300 302 305 309 314 317 319 320 322 323 324 325 326 326 326 326 327 327 327 328 328 328 328 328 328 328 328 328 329 328 328 328 328 327 327 327
19 4 2 5 10 20 47 61 44 6 356 2 360 352 339 328 318 311 306 309 309 308 304 301 299 299 299 306 311 320 343 354 342 325 316 310 312 315 320 320 319 317 316 319 319 318 314 309 305 301 298 300 305 309 313 316 317 319 320 322 323 323 324 324 325 325 325 326 326 326 326 326 326 326 326 327 327 328 328 328 328 328 328 328 327 327
29 31 32 29 30 35 47 55 49 33 18 11 1 348 336 325 314 305 300 309 313 313 310 308 309 312 318 324 325 327 340 345 341 332 323 313 311 312 314 319 320 319 317 318 318 317 312 307 303 300 297 300 306 311 314 315 316 317 319 320 321 322 322 323 323 324 324 324 324 325 325 325 325 325 325 326 326 327 328 328 328 328 328 328 327 326
44 43 42 40 39 40 44 45 43 39 32 24 11 355 342 331 323 319 324 331 330 326 319 318 319 322 324 325 325 324 328 335 344 345 334 317 310 309 312 321 323 320 317 317 318 316 311 305 302 300 299 304 310 313 314 315 315 317 317 318 319 320 321 321 322 322 322 322 323 323 323 323 323 323 324 325 325 326 327 328 328 329 329 328 326 325
51 51 50 46 44 42 42 40 39 37 34 28 20 8 353 342 338 340 348 346 338 330 324 323 323 325 326 326 325 322 320 332 353 360 344 320 309 307 315 325 326 323 318 316 315 313 307 302 300 300 303 310 314 315 315 315 315 316 316 316 317 318 319 320 321 321 321 321 321 321 322 322 322 322 323 324 325 326 327 328 328 329 329 328 326 324
54 52 51 49 46 44 43 41 39 36 31 27 22 16 6 356 351 351 351 344 335 328 325 325 325 326 325 325 321 316 313 336 7 9 348 322 309 307 318 327 328 325 321 316 312 308 303 299 299 303 311 318 319 317 316 316 315 315 314 315 316 317 318 319 320 320 320 320 320 320 321 321 322 322 323 323 324 325 327 328 328 329 329 327 324 320
58 53 51 48 45 42 40 38 35 31 25 22 19 17 13 6 358 351 344 336 330 326 324 324 324 323 321 318 314 310 310 352 18 12 349 326 311 310 321 326 328 329 327 320 313 309 303 302 306 314 321 324 323 320 317 317 315 313 312 314 315 317 318 319 319 319 319 319 319 319 320 321 321 322 323 323 324 325 327 328 329 329 328 325 322 318
60 52 47 44 39 34 30 26 22 19 15 13 13 13 13 7 358 348 338 332 327 324 320 320 320 320 319 317 313 312 315 2 18 12 352 332 319 316 324 325 329 333 336 327 322 316 313 312 317 323 327 325 322 319 316 315 314 312 311 314 315 317 319 319 319 319 318 318 318 318 319 320 321 322 323 324 325 326 327 328 329 328 326 322 319 317
38 26 25 26 24 19 16 11 7 4 2 1 2 4 4 1 352 344 337 332 327 322 316 314 314 315 316 316 314 315 317 349 6 7 355 335 320 317 323 324 327 332 338 334 326 320 316 314 319 324 327 323 319 316 314 312 311 311 313 314 315 317 319 319 319 318 317 317 317 318 319 320 321 322 323 324 325 326 328 329 329 328 324 321 318 316
21 12 10 7 4 1 1 360 357 354 350 348 349 351 352 350 345 340 335 330 325 319 312 310 308 308 308 305 304 304 308 327 351 358 353 335 318 314 321 322 323 325 330 327 319 310 307 309 314 319 322 318 315 312 311 310 309 310 314 315 315 316 319 319 318 317 316 316 317 317 318 319 321 322 323 325 326 327 328 328 328 327 324 320 318 316
21 11 7 360 355 351 352 355 354 349 342 338 338 339 341 340 337 334 330 327 321 316 311 308 306 305 304 299 295 294 298 314 338 350 350 335 320 313 319 319 319 319 319 317 307 296 290 296 304 310 313 312 311 309 309 308 309 312 316 317 316 316 318 318 318 317 316 316 316 317 318 319 321 322 324 325 326 327 328 328 327 325 323 320 317 316
22 14 8 2 356 353 353 353 349 343 335 332 332 333 333 332 331 329 327 323 319 314 308 305 304 304 304 301 297 295 297 310 333 343 344 332 321 313 315 316 317 318 318 314 308 301 291 294 300 305 308 307 306 305 304 307 311 316 320 318 316 315 316 318 318 316 315 315 315 316 318 319 321 323 324 326 327 327 327 326 325 324 323 320 318 316
20 15 11 6 1 355 352 348 342 336 330 329 330 330 330 329 328 326 324 321 316 310 304 299 298 298 299 299 299 299 300 312 328 334 333 328 321 314 313 314 317 318 316 313 310 307 300 300 301 303 304 305 304 302 302 310 317 320 319 316 314 313 314 316 316 315 314 315 315 316 318 320 322 323 325 326 326 326 325 325 324 323 323 321 319 317
18 14 11 7 1 353 348 342 336 332 330 330 328 327 326 326 325 324 322 319 314 309 302 296 292 289 289 289 291 293 298 307 317 323 324 324 322 317 310 311 314 316 313 310 309 307 304 302 302 302 302 302 303 304 309 317 320 319 314 313 312 313 314 314 314 314 314 315 316 317 319 321 322 323 324 325 324 324 323 323 323 322 322 321 319 317
15 12 10 3 355 348 342 336 333 332 332 329 326 324 322 323 323 323 320 317 312 308 302 296 291 286 283 281 282 285 291 299 306 313 319 323 323 317 307 306 309 311 309 307 306 306 305 303 303 303 301 300 303 308 316 320 319 316 312 313 314 314 313 313 314 315 315 315 316 317 319 321 322 323 322 323 323 323 322 322 322 321 321 320 318 316
13 8 4 356 349 342 337 333 332 331 329 325 321 317 316 318 320 320 317 315 311 307 305 303 299 292 285 280 277 276 279 286 295 306 317 322 322 315 306 303 304 304 302 300 300 301 302 302 304 305 304 303 305 308 312 315 314 313 312 312 312 311 311 313 315 316 315 315 316 317 320 321 322 322 322 323 323 322 321 321 321 321 320 318 317 315
9 2 355 348 343 339 334 331 328 326 324 317 312 309 310 315 318 319 317 315 314 314 317 315 310 301 291 280 274 272 274 283 293 304 314 316 313 307 302 301 300 299 297 294 293 293 293 294 297 300 303 305 306 307 308 309 309 310 311 311 310 309 311 316 317 317 316 317 318 320 321 322 323 323 322 323 322 321 319 318 318 319 319 318 316 314
3 354 349 343 339 336 330 325 322 319 316 310 306 306 310 317 320 322 320 320 321 324 325 321 316 307 300 289 281 276 276 283 292 300 306 305 300 295 296 296 297 297 297 293 290 288 288 289 290 292 294 297 301 303 306 306 307 309 312 312 312 314 318 319 318 318 318 320 321 322 322 322 322 322 321 321 320 318 316 315 315 315 315 315 315 314
356 349 345 340 335 329 321 316 314 313 311 308 308 311 320 326 328 328 327 328 330 330 330 326 321 315 308 300 292 286 283 284 289 296 301 301 298 294 292 290 291 293 296 295 293 290 287 287 288 289 290 292 294 296 298 299 303 306 309 309 309 311 315 316 318 319 321 322 322 322 321 321 321 320 320 319 317 314 311 310 309 309 310 310 310 312
353 346 341 336 329 322 316 313 311 310 309 309 313 320 330 334 334 333 332 333 334 335 335 333 328 323 318 313 310 309 314 310 308 306 305 304 303 299 294 291 292 295 298 299 297 293 289 286 285 286 288 291 293 296 296 298 301 304 306 306 308 310 310 314 318 323 324 323 322 322 322 321 321 320 319 316 314 311 308 307 306 307 308 308 308 308
349 342 335 328 321 315 312 312 313 314 315 318 323 328 336 338 338 336 334 334 334 335 335 334 330 325 321 322 325 329 331 325 321 317 315 312 310 308 304 304 303 304 305 303 301 297 293 289 287 285 286 290 292 294 295 299 302 304 304 308 312 316 316 320 324 325 324 322 322 323 323 322 320 317 315 312 310 308 307 307 307 308 308 307 307 305
343 335 328 322 317 314 315 318 321 323 324 325 328 332 337 341 341 339 336 335 335 335 335 333 329 325 323 326 328 330 329 329 328 327 324 322 321 320 316 313 311 309 306 303 303 302 301 298 294 291 292 293 293 293 294 297 300 303 306 311 315 316 314 317 320 322 322 322 322 322 323 320 317 314 311 309 308 308 309 310 309 309 308 307 305 303
337 331 327 322 320 321 325 327 327 326 327 328 331 334 339 343 343 342 340 337 335 335 337 335 331 329 330 331 331 331 329 331 331 330 328 327 326 325 322 319 316 313 308 303 301 300 300 299 298 297 297 294 292 290 290 294 298 303 308 314 316 315 313 314 317 320 321 321 321 321 321 319 316 313 310 310 310 311 312 311 310 309 308 307 306 303
338 334 331 327 325 327 330 331 330 329 330 330 333 336 341 344 344 343 341 338 336 335 335 335 334 333 332 332 332 332 332 332 332 332 331 331 331 330 327 324 321 317 311 305 299 294 291 290 292 294 296 293 290 287 287 293 301 307 312 316 317 316 315 316 318 320 321 320 319 319 320 318 316 313 311 311 312 312 312 311 310 309 308 307 306 304
342 338 335 330 329 330 335 335 333 331 333 334 335 338 342 345 344 343 342 340 338 335 334 336 336 334 332 332 334 334 333 332 331 331 331 332 332 331 330 327 323 318 311 304 298 292 286 283 283 285 287 289 289 289 291 298 305 310 313 316 317 317 316 317 318 320 320 318 317 318 320 319 317 314 312 311 311 311 311 310 309 308 307 306 306 307
342 340 337 332 331 333 337 338 336 335 336 336 336 339 343 346 347 345 342 341 339 337 336 338 337 335 332 333 335 335 333 330 329 329 329 331 331 332 331 329 325 319 313 305 298 291 285 279 275 273 272 275 281 288 295 302 308 311 313 315 316 316 315 315 317 318 317 316 316 317 318 318 317 315 314 313 311 310 311 310 309 308 307 307 309 310
341 341 338 333 333 335 339 339 338 337 337 337 337 338 342 345 347 346 344 342 340 339 339 338 336 334 333 333 334 334 333 330 328 328 328 330 331 332 332 331 328 324 318 311 303 295 288 279 271 264 258 261 271 284 296 303 309 312 313 314 314 315 314 314 315 316 316 315 315 316 316 314 313 312 312 311 311 310 310 310 309 308 308 310 311 310
340 341 337 332 332 335 337 337 338 338 338 337 337 338 340 343 347 348 346 344 342 341 339 337 335 333 332 332 333 334 334 331 329 328 330 331 332 333 333 333 332 330 326 322 318 313 307 297 283 269 255 254 266 284 299 307 311 312 312 313 314 315 315 313 314 314 315 314 314 315 314 312 311 310 311 310 309 308 309 308 308 309 310 312 311 309
340 340 336 332 333 334 335 336 336 338 339 338 337 337 340 343 345 346 347 346 344 342 339 336 334 332 331 332 333 333 333 331 329 328 329 330 331 333 334 335 336 336 333 332 331 330 328 327 324 315 295 280 294 308 313 314 313 313 312 313 315 316 315 312 311 312 313 313 313 313 312 312 311 311 312 310 309 308 308 308 309 310 311 312 310 308